TimePDT,TemperatureF,Dew PointF,Humidity,Sea Level PressureIn,VisibilityMPH,Wind Direction,Wind SpeedMPH,Gust SpeedMPH,PrecipitationIn,Events,Conditions,WindDirDegrees,DateUTC
12:54 AM,61.0,57.0,87,29.91,10.0,Calm,Calm,-,N/A,,Clear,0,2013-09-16 07:54:00
1:54 AM,60.1,57.0,90,29.91,10.0,Calm,Calm,-,N/A,,Clear,0,2013-09-16 08:54:00
2:54 AM,57.0,54.0,89,29.91,10.0,Calm,Calm,-,N/A,,Clear,0,2013-09-16 09:54:00
3:54 AM,55.9,52.0,87,29.90,10.0,East,4.6,-,N/A,,Clear,80,2013-09-16 10:54:00
4:54 AM,55.9,52.0,87,29.90,10.0,ESE,3.5,-,N/A,,Clear,120,2013-09-16 11:54:00
5:54 AM,54.0,51.1,90,29.91,10.0,Calm,Calm,-,N/A,,Clear,0,2013-09-16 12:54:00
6:09 AM,53.6,51.8,94,29.88,10.0,Calm,Calm,-,N/A,,Scattered Clouds,0,2013-09-16 13:09:00
6:18 AM,53.6,51.8,94,29.88,10.0,Calm,Calm,-,N/A,,Mostly Cloudy,0,2013-09-16 13:18:00
6:45 AM,57.2,55.4,94,29.88,2.5,Calm,Calm,-,N/A,,Overcast,0,2013-09-16 13:45:00
6:52 AM,57.2,55.4,94,29.88,5.0,Calm,Calm,-,N/A,,Overcast,0,2013-09-16 13:52:00
6:54 AM,57.0,55.9,96,29.92,5.0,Calm,Calm,-,N/A,,Overcast,0,2013-09-16 13:54:00
7:07 AM,55.4,53.6,94,29.89,1.8,Calm,Calm,-,N/A,,Overcast,0,2013-09-16 14:07:00
7:13 AM,55.4,53.6,94,29.89,0.2,Calm,Calm,-,N/A,Fog,Fog,0,2013-09-16 14:13:00
7:21 AM,55.4,53.6,94,29.89,0.2,ENE,3.5,-,N/A,Fog,Fog,70,2013-09-16 14:21:00
7:44 AM,55.4,55.4,100,29.89,0.2,Calm,Calm,-,N/A,Fog,Fog,0,2013-09-16 14:44:00
7:54 AM,55.9,55.9,100,29.93,0.2,Calm,Calm,-,N/A,Fog,Fog,0,2013-09-16 14:54:00
8:14 AM,57.2,55.4,94,29.90,0.2,Calm,Calm,-,N/A,Fog,Fog,0,2013-09-16 15:14:00
8:43 AM,57.2,57.2,100,29.91,0.5,West,3.5,-,N/A,Fog,Fog,280,2013-09-16 15:43:00
8:54 AM,57.9,57.0,97,29.94,0.2,Calm,Calm,-,N/A,Fog,Fog,0,2013-09-16 15:54:00
9:15 AM,57.2,57.2,100,29.92,1.0,West,5.8,-,N/A,,Mist,260,2013-09-16 16:15:00
9:27 AM,59.0,57.2,94,29.92,2.5,WSW,4.6,-,N/A,,Overcast,250,2013-09-16 16:27:00
9:34 AM,57.2,57.2,100,29.92,3.0,West,3.5,-,N/A,,Overcast,280,2013-09-16 16:34:00
9:54 AM,59.0,57.0,93,29.96,1.0,Variable,3.5,-,N/A,,Overcast,0,2013-09-16 16:54:00
10:01 AM,59.0,57.2,94,29.92,9.0,WNW,4.6,-,N/A,,Overcast,290,2013-09-16 17:01:00
10:54 AM,63.0,57.0,81,29.95,10.0,West,3.5,-,N/A,,Overcast,270,2013-09-16 17:54:00
11:13 AM,66.2,57.2,73,29.92,10.0,West,5.8,-,N/A,,Scattered Clouds,270,2013-09-16 18:13:00
11:54 AM,66.0,57.0,73,29.95,10.0,WNW,6.9,-,N/A,,Clear,290,2013-09-16 18:54:00
12:54 PM,66.0,57.0,73,29.94,10.0,NW,10.4,-,N/A,,Clear,310,2013-09-16 19:54:00
1:54 PM,69.1,57.0,65,29.92,10.0,West,8.1,-,N/A,,Clear,280,2013-09-16 20:54:00
2:54 PM,69.1,55.0,61,29.91,10.0,West,10.4,-,N/A,,Clear,280,2013-09-16 21:54:00
3:54 PM,68.0,54.0,61,29.90,10.0,West,9.2,17.3,N/A,,Clear,260,2013-09-16 22:54:00
4:54 PM,66.9,55.0,66,29.90,10.0,WSW,12.7,-,N/A,,Clear,250,2013-09-16 23:54:00
5:04 PM,66.2,55.4,68,29.87,10.0,West,9.2,19.6,N/A,,Partly Cloudy,260,2013-09-17 00:04:00
5:54 PM,64.9,55.0,70,29.90,10.0,WSW,8.1,-,N/A,,Partly Cloudy,240,2013-09-17 00:54:00
6:54 PM,64.0,55.9,75,29.90,10.0,WSW,6.9,-,N/A,,Partly Cloudy,250,2013-09-17 01:54:00
7:54 PM,62.1,55.9,80,29.91,10.0,SW,9.2,-,N/A,,Clear,230,2013-09-17 02:54:00
8:54 PM,62.1,55.0,78,29.92,10.0,WSW,6.9,-,N/A,,Clear,250,2013-09-17 03:54:00
9:54 PM,61.0,55.0,81,29.94,10.0,SSW,10.4,-,N/A,,Partly Cloudy,210,2013-09-17 04:54:00
10:54 PM,60.1,55.9,86,29.94,10.0,SW,9.2,19.6,N/A,,Scattered Clouds,220,2013-09-17 05:54:00
11:54 PM,60.1,55.0,83,29.94,10.0,SW,9.2,-,N/A,,Clear,230,2013-09-17 06:54:00